Location: Mahannah Oil Field
(37.4664°N, 96.6003°W)
Time: 00:24:19
(UTC+00:00)

A-11 Canister half - Pass Details

Date: 31 January 2021
Orbit: 1524 x 1684 km, 47.3° (Epoch: 25 February)

Event Time Altitude Azimuth Distance (km) Brightness Sun altitude
Rises 17:44:17 0° 215° (SW) 4,675 12.0 33.8°
Reaches altitude 10° 17:47:24 10° 211° (SSW) 3,686 11.7 34.0°
Maximum altitude 17:56:19 55° 137° (SE) 1,790 10.7 34.4°
Drops below altitude 10° 18:05:19 10° 63° (ENE) 3,718 11.0 34.8°
Sets 18:08:28 0° 59° (ENE) 4,718 11.4 34.9°
